This is the latest recevied weather packets stored in our database for station/object OK1ALX-6. If no packets are shown the sender has not sent any weather packets the latest 10 day(s).
| Time | Temp. | Humidity | Pressure | Rain* | Wind** | Luminosity | Snow |
|---|---|---|---|---|---|---|---|
| 1787835603 | 26.67° C | 48% | 1021.2 hPa | 0 mm | - | 495 W/m² | - |
| 1787835004 | 26.67° C | 47% | 1021.5 hPa | 0 mm | - | 476 W/m² | - |
| 1787834403 | 26.67° C | 51% | 1021.4 hPa | 0 mm | - | 595 W/m² | - |
| 1787833803 | 26.11° C | 49% | 1021.4 hPa | 0 mm | - | 538 W/m² | - |
| 1787833203 | 26.11° C | 51% | 1021.5 hPa | 0 mm | - | 623 W/m² | - |
| 1787832603 | 25.56° C | 51% | 1021.5 hPa | 0 mm | - | 617 W/m² | - |
| 1787832003 | 25.56° C | 54% | 1021.7 hPa | 0 mm | - | 191 W/m² | - |
| 1787831403 | 26.11° C | 53% | 1022 hPa | 0 mm | - | 630 W/m² | - |
| 1787830803 | 26.11° C | 52% | 1022.1 hPa | 0 mm | - | 243 W/m² | - |
| 1787830208 | 25.56° C | 53% | 1021.8 hPa | 0 mm | - | 614 W/m² | - |
| 1787829603 | 25.56° C | 57% | 1021.9 hPa | 0 mm | - | 587 W/m² | - |
| 1787829003 | 25° C | 57% | 1021.7 hPa | 0 mm | - | 585 W/m² | - |
| 1787828403 | 24.44° C | 57% | 1021.9 hPa | 0 mm | - | 607 W/m² | - |
| 1787827803 | 24.44° C | 59% | 1022.3 hPa | 0 mm | - | 594 W/m² | - |
| 1787827203 | 24.44° C | 60% | 1022.5 hPa | 0 mm | - | 615 W/m² | - |
| 1787826603 | 23.89° C | 63% | 1022.7 hPa | 0 mm | - | 551 W/m² | - |
| 1787826003 | 23.33° C | 62% | 1022.5 hPa | 0 mm | - | 621 W/m² | - |
| 1787825403 | 23.33° C | 65% | 1022.7 hPa | 0 mm | - | 652 W/m² | - |
| 1787824803 | 22.78° C | 64% | 1022.8 hPa | 0 mm | - | 675 W/m² | - |
| 1787824203 | 22.22° C | 67% | 1023.2 hPa | 0 mm | - | 433 W/m² | - |
| 1787823603 | 22.22° C | 65% | 1023.1 hPa | 0 mm | - | 594 W/m² | - |
| 1787823003 | 21.67° C | 68% | 1023.4 hPa | 0 mm | - | 565 W/m² | - |
| 1787822403 | 21.67° C | 68% | 1023.4 hPa | 0 mm | - | 529 W/m² | - |
| 1787821803 | 21.67° C | 66% | 1023.4 hPa | 0 mm | - | 593 W/m² | - |
| 1787821203 | 21.11° C | 67% | 1023.7 hPa | 0 mm | - | 565 W/m² | - |
* Rain latest hour (hover to see other rain measurements)
** Current wind speed in m/s (hover to see current wind gust speed)